Theta_e
351 350 353 348 328 328 320 321 327 325 326 332 333 331 330 334 327 323 346 350 352 353 355 358 365 366 367 366 366 367 367 365 364 365 364 363 362 361 361 360 360 360 360 360 361 361 361 364 364
347 349 349 336 324 318 319 326 325 329 332 335 335 334 332 332 340 339 342 351 353 353 354 355 364 366 366 366 366 366 365 362 362 363 363 362 361 361 360 360 361 361 361 360 360 361 361 361 363
350 353 336 329 325 318 319 327 329 332 335 333 332 337 335 333 339 340 349 352 354 355 355 357 366 366 365 364 364 365 365 363 362 362 362 361 361 361 362 361 360 361 362 362 361 361 361 362 363
346 345 337 325 319 322 326 330 332 331 332 336 334 330 340 346 341 347 352 352 354 356 356 362 365 364 365 364 364 363 363 363 362 363 362 362 362 362 361 361 360 359 359 360 360 360 359 361 362
348 340 326 321 320 325 329 332 333 330 330 332 333 330 334 345 350 350 351 351 352 354 357 358 365 365 364 365 365 364 363 362 362 361 360 360 360 361 361 362 360 359 360 359 359 357 359 358 359
334 334 322 317 319 326 327 332 331 330 332 333 332 331 335 348 348 349 351 350 352 352 355 358 363 365 364 363 362 363 362 361 361 361 360 360 359 359 360 360 359 360 359 358 358 357 357 357 357
329 330 321 321 321 324 328 335 332 331 331 332 336 331 338 342 349 349 351 352 351 353 356 357 357 360 363 365 364 362 362 362 360 360 360 361 359 358 360 359 360 358 357 355 356 357 357 357 357
336 331 322 324 322 322 332 335 337 334 332 340 339 331 332 342 349 349 349 352 353 352 353 356 358 357 360 361 362 362 361 360 361 360 360 360 359 359 359 360 359 357 357 358 357 358 357 356 357
335 325 320 321 323 324 337 331 337 341 335 337 339 339 344 347 348 345 345 347 350 350 351 356 359 360 360 360 357 356 355 354 357 361 361 359 359 358 360 359 358 357 357 357 357 358 358 357 357
327 324 322 328 329 329 334 333 335 334 334 332 338 344 347 346 344 340 339 341 344 347 352 355 357 355 357 354 352 350 350 350 348 352 359 359 361 361 359 358 358 358 357 356 357 357 357 357 355
326 322 325 328 330 336 334 333 336 333 330 333 335 340 343 343 343 339 339 342 344 349 352 355 358 360 354 353 353 350 348 347 345 350 359 360 360 360 361 357 358 353 357 360 356 359 358 358 356
320 324 326 330 333 335 334 337 333 334 334 338 341 344 344 344 343 342 340 342 345 349 352 354 357 359 359 354 352 351 350 349 351 355 360 359 357 358 358 354 351 357 356 355 359 356 359 358 358
317 321 327 329 333 334 337 334 333 334 337 340 344 344 344 344 344 345 345 346 348 348 350 353 356 358 358 357 353 351 355 353 350 352 355 355 355 356 357 354 351 356 354 352 353 356 354 355 354
317 318 320 325 331 333 331 333 334 334 339 339 341 341 343 343 343 344 344 345 347 349 349 353 354 357 356 356 353 351 348 352 352 348 352 357 356 357 356 351 349 352 354 351 350 352 355 355 353
317 316 318 323 327 328 331 326 330 336 338 336 337 339 341 343 344 343 344 342 346 348 350 351 353 355 355 354 354 353 348 351 350 348 351 355 356 356 354 349 349 350 353 352 351 352 356 355 353
315 316 312 317 324 324 328 315 329 336 335 334 336 337 339 341 342 344 344 345 343 347 349 352 352 352 353 352 350 351 352 349 349 350 350 354 358 357 356 351 351 354 354 354 353 354 353 354 354
311 306 308 312 320 322 324 317 320 335 334 334 335 336 338 340 342 344 345 346 344 347 349 351 353 352 352 352 350 350 353 352 350 350 350 354 356 357 356 352 350 351 352 355 353 354 357 358 355
304 304 306 306 315 321 320 319 323 332 332 333 335 337 338 338 340 345 346 347 348 349 351 351 352 354 354 352 352 351 351 353 353 351 351 353 354 357 357 354 351 355 354 353 352 356 360 356 355
306 305 305 309 312 314 317 319 319 331 331 331 334 336 337 339 343 345 347 348 348 349 350 351 350 352 353 350 349 350 349 350 352 353 349 354 355 355 357 355 355 352 352 354 355 356 357 353 353
306 305 307 310 311 314 313 314 315 326 331 332 333 334 336 338 341 342 345 347 348 348 350 351 351 352 351 351 352 352 349 352 352 354 353 354 355 357 356 358 356 356 352 355 354 356 358 354 353
307 307 306 306 308 311 311 311 313 316 330 334 334 335 335 337 338 342 343 345 347 348 350 351 353 351 351 354 354 354 354 354 353 353 353 353 357 356 357 358 358 358 353 350 353 359 354 353 349
305 307 307 307 307 304 310 304 312 318 316 324 333 335 336 337 339 342 343 344 346 349 351 353 354 354 354 355 353 353 350 348 352 358 359 356 357 357 354 358 359 358 355 353 351 356 356 356 354
306 308 309 309 308 308 307 305 311 321 318 322 324 328 333 338 340 341 343 345 347 349 350 352 355 355 356 356 357 353 352 352 354 353 356 358 360 358 354 357 359 357 355 353 352 356 357 355 358
309 308 308 310 308 302 306 305 309 318 320 325 331 333 329 334 338 342 344 346 346 349 350 351 354 355 356 355 356 355 355 354 351 352 351 352 354 355 358 356 359 358 356 353 350 354 355 356 359
309 306 302 301 302 302 307 308 313 321 325 329 329 331 330 334 337 340 342 343 346 347 349 350 352 353 355 355 355 355 355 356 354 357 353 354 357 357 355 358 357 356 357 357 357 355 352 352 353
307 306 303 296 300 303 309 306 314 323 330 332 330 333 334 334 337 340 342 342 345 346 349 350 350 352 353 353 355 356 355 354 352 353 352 352 351 352 357 357 357 358 358 357 356 353 351 351 351
306 307 307 303 302 304 309 315 320 326 328 329 329 332 333 336 338 338 342 344 345 346 347 350 352 352 353 352 353 352 352 350 349 350 352 352 354 353 356 356 356 357 358 357 357 353 352 354 355
310 309 304 306 300 299 305 309 315 322 324 327 328 332 335 338 339 342 344 345 347 347 348 348 350 351 352 352 353 351 351 350 349 350 349 350 352 354 355 356 357 357 358 358 358 354 355 355 355
306 305 306 307 306 303 301 305 315 325 325 327 330 332 335 337 339 340 343 346 349 349 349 350 351 352 352 353 354 351 347 345 346 350 351 351 351 352 354 356 356 357 356 357 356 357 357 356 358
306 305 305 305 303 306 307 307 320 323 326 331 331 332 334 336 337 338 340 343 344 348 349 347 349 350 351 353 351 346 349 351 349 349 351 353 352 349 353 354 355 355 355 357 356 355 355 355 355
Wind_Speed
2 3 1 2 1 4 4 6 2 7 5 2 8 2 5 7 3 5 10 9 19 18 15 15 16 16 17 17 18 18 17 16 15 15 15 15 14 12 11 9 9 10 10 11 10 11 11 10 13
5 4 1 1 2 4 3 3 6 7 6 10 10 4 5 6 4 9 14 17 21 19 16 16 15 16 16 16 17 18 17 17 15 14 13 13 13 11 10 8 9 9 9 9 9 9 9 9 11
4 3 2 3 2 4 4 4 7 7 7 5 4 8 4 4 6 15 12 22 20 18 16 16 15 16 17 16 16 16 16 16 15 14 12 12 11 10 9 8 8 8 7 8 8 9 8 7 10
3 1 3 3 6 2 3 4 3 2 7 8 7 7 7 6 10 7 19 20 18 18 16 16 17 17 16 15 16 16 16 16 15 13 12 10 10 10 9 9 8 8 7 7 7 6 7 6 8
2 1 4 3 3 2 1 1 3 3 4 5 2 5 6 5 10 18 20 17 18 17 16 15 16 16 16 16 15 15 15 15 13 12 11 10 9 9 8 8 8 7 7 7 5 5 7 6 8
2 0 3 2 1 1 1 3 2 2 2 4 7 8 4 6 16 16 18 17 16 16 13 12 16 16 16 17 16 14 14 15 15 13 11 9 8 7 7 7 7 6 6 7 5 5 5 6 6
2 2 3 2 1 2 2 7 3 2 4 5 7 5 5 8 13 16 16 15 16 15 13 13 13 13 16 15 15 14 13 13 13 12 11 9 7 6 6 6 7 6 6 6 5 5 5 7 7
2 2 2 1 3 2 5 5 4 4 3 6 2 4 7 10 15 15 14 14 14 13 14 13 13 13 11 11 15 13 10 9 11 11 10 9 6 6 6 4 5 5 5 7 7 6 5 6 6
2 2 2 3 5 1 7 5 4 3 6 4 3 4 10 20 17 16 14 13 12 11 12 10 8 9 9 4 6 5 4 3 7 9 9 7 4 6 7 4 4 4 6 7 5 6 7 7 5
1 0 3 4 5 2 5 4 7 4 6 3 8 12 20 20 18 19 17 15 15 15 13 11 10 7 8 7 8 7 5 2 6 5 5 4 4 4 4 4 5 4 5 4 5 6 6 8 4
1 2 2 3 4 6 10 6 5 4 7 8 13 18 19 19 16 17 16 15 16 14 11 12 11 10 6 8 8 5 5 6 6 5 4 4 3 3 3 1 1 1 2 2 4 4 4 5 4
2 5 3 3 6 7 9 7 4 6 5 3 16 21 21 20 18 17 16 15 14 13 12 11 11 10 8 6 6 7 8 7 6 6 4 4 4 4 3 1 2 3 2 3 2 3 3 5 4
2 2 2 1 7 6 8 5 2 3 6 14 18 19 20 17 15 13 13 12 12 13 12 11 10 9 8 7 6 5 5 6 5 5 5 4 4 4 3 1 2 2 2 2 3 3 4 5 5
4 4 5 2 7 6 6 3 4 5 11 15 18 17 15 16 16 14 14 14 14 13 12 11 11 9 8 7 7 4 2 5 5 5 5 6 5 4 3 3 3 3 3 3 2 4 4 4 5
4 3 2 2 6 4 6 3 8 12 13 14 15 15 14 15 16 16 15 13 15 13 12 12 12 11 10 9 7 5 4 5 5 5 7 7 6 4 4 3 3 4 3 5 4 4 5 4 5
4 2 4 2 6 2 8 6 5 15 16 15 14 14 14 16 17 15 15 14 13 12 14 12 11 12 12 10 6 5 5 6 6 6 6 8 7 6 5 3 5 2 3 3 4 4 5 5 4
7 4 5 5 4 2 8 5 5 14 13 14 14 14 14 14 15 15 16 14 14 14 12 12 12 13 12 10 7 7 7 6 6 6 7 8 8 7 5 3 3 4 3 3 4 4 5 3 3
4 5 5 5 0 4 8 12 4 13 14 14 14 13 13 13 17 15 16 15 14 14 12 13 10 11 10 7 6 5 5 6 6 6 6 9 7 8 6 4 4 3 3 4 5 6 4 1 2
2 3 8 4 5 6 10 12 6 10 13 13 13 14 14 16 11 12 15 15 15 14 14 14 13 12 10 8 7 7 8 5 6 5 6 8 9 9 7 6 6 4 6 6 6 6 5 3 3
3 5 3 7 3 6 4 9 4 9 13 16 16 16 15 11 10 13 15 16 16 16 16 15 15 13 11 9 7 5 4 5 3 5 6 9 10 10 8 8 6 6 6 7 7 7 2 2 4
5 4 3 6 5 1 4 1 4 1 9 11 14 14 14 14 15 14 15 16 15 16 17 15 15 14 12 13 7 5 4 4 4 6 7 7 9 10 9 8 8 6 6 6 6 5 6 3 3
4 2 2 2 3 2 5 3 2 7 5 6 10 12 12 13 15 12 14 15 16 16 15 15 15 15 14 15 11 12 9 8 5 4 4 6 10 10 9 9 9 7 5 6 5 5 6 5 4
1 2 1 1 3 3 2 4 2 7 5 7 6 4 11 14 15 15 16 15 14 13 13 13 14 14 13 13 12 11 11 8 6 5 6 7 8 9 9 9 10 9 6 6 6 6 7 6 3
6 2 3 2 1 4 2 4 2 5 7 11 14 13 9 12 12 12 11 12 13 13 13 13 14 13 14 14 14 13 12 10 8 8 6 6 6 7 11 10 10 9 8 8 8 8 8 6 5
3 3 3 3 3 2 1 4 4 7 8 10 13 11 3 6 9 9 11 10 10 12 11 12 14 13 14 14 14 15 13 10 10 10 7 7 6 7 9 11 11 9 10 9 8 7 7 7 6
3 4 4 3 2 3 2 3 3 5 5 6 5 5 7 7 8 8 7 5 7 7 10 12 13 13 14 14 14 13 11 7 7 9 7 8 8 9 10 9 11 12 11 9 9 7 8 7 7
6 4 3 6 1 3 2 1 3 1 6 8 9 10 10 10 10 10 7 6 4 5 9 11 9 8 10 11 10 8 9 9 7 6 7 7 9 9 11 11 12 12 12 11 10 8 9 9 8
1 8 4 1 4 3 2 4 2 4 6 8 9 10 9 10 9 7 6 5 3 2 3 4 6 7 8 8 7 6 5 5 3 4 8 9 10 11 12 13 12 13 13 12 11 10 10 10 9
3 4 5 2 2 2 5 4 3 8 7 8 8 9 10 10 10 9 8 9 9 9 8 6 6 5 4 5 5 6 6 5 4 7 8 9 9 10 12 14 14 14 14 13 11 13 12 12 11
2 3 1 4 5 0 3 3 1 7 8 8 8 10 10 10 10 9 10 10 10 8 7 6 6 5 6 6 4 3 4 4 6 7 9 9 10 6 14 15 15 15 15 14 14 15 13 14 14
Wind_Direction
187 147 128 235 107 69 55 35 67 95 114 88 130 184 106 51 18 79 137 148 145 148 148 147 134 129 129 130 132 134 135 136 138 141 143 146 147 148 146 145 126 114 105 103 104 108 111 109 124
140 132 173 88 72 104 70 28 52 39 96 122 98 106 57 78 60 122 139 152 148 148 151 150 140 133 132 134 135 134 136 137 135 141 146 148 150 149 152 147 128 117 121 119 116 119 126 137 134
184 204 329 62 83 98 114 105 94 80 70 107 97 57 36 51 98 138 127 147 147 150 152 146 145 140 138 137 136 136 139 142 144 149 152 153 151 150 153 140 128 124 128 123 131 138 137 152 148
188 169 84 59 81 96 102 97 55 88 55 60 99 70 89 51 147 141 143 149 146 151 154 144 148 148 146 144 144 144 146 146 148 151 155 157 155 154 150 137 132 132 135 128 137 155 145 160 155
91 70 63 59 46 103 182 82 22 93 71 64 69 104 84 50 109 136 144 153 151 153 154 153 152 151 152 153 152 150 151 149 151 157 160 166 168 161 149 140 136 129 124 125 139 146 145 160 173
75 212 70 51 63 104 218 169 119 6 38 102 100 111 86 125 133 145 148 152 155 154 154 155 159 160 161 159 159 157 161 160 162 165 167 174 171 164 151 143 142 149 137 137 137 135 151 150 161
61 55 65 133 262 314 117 139 161 102 97 76 117 95 102 149 143 147 150 150 155 155 157 162 164 167 169 165 164 167 174 171 172 172 175 174 174 168 160 164 152 149 151 144 150 149 148 159 146
95 66 100 220 187 311 133 130 159 161 124 117 132 146 156 161 149 144 149 150 156 163 168 169 169 171 172 173 165 179 175 185 182 182 181 174 178 177 176 163 166 168 174 162 161 161 160 160 154
115 92 162 185 172 200 147 153 92 79 119 83 64 117 126 144 147 148 149 157 163 170 176 176 172 174 166 134 162 138 55 308 254 202 186 181 192 186 178 181 187 183 199 180 163 174 154 163 174
218 212 219 168 186 167 157 147 157 159 152 122 94 103 132 146 158 160 165 168 174 179 182 176 177 174 171 130 131 139 159 224 272 294 200 196 181 202 200 226 216 222 204 182 175 181 169 193 188
172 242 216 183 166 144 154 181 184 180 186 189 168 149 152 156 167 172 173 180 180 183 184 184 184 180 153 144 147 151 174 195 230 247 179 177 187 212 204 269 178 226 106 198 195 173 195 188 206
267 280 212 77 140 133 160 154 202 215 1 197 159 156 157 166 174 175 178 182 186 191 193 186 189 188 185 153 146 159 184 190 201 198 173 187 202 213 224 221 257 241 171 169 195 190 187 204 202
268 323 208 81 161 169 149 181 174 181 78 123 141 159 170 170 172 176 179 180 188 194 193 193 190 191 183 169 162 170 177 194 194 192 187 199 212 220 245 230 243 246 212 203 183 214 196 198 218
326 312 282 237 171 165 166 163 200 112 131 136 150 166 175 177 178 175 181 186 192 195 196 193 198 191 189 189 184 189 157 208 204 212 206 207 225 240 240 228 231 255 252 225 200 231 222 216 222
329 341 328 148 163 188 171 190 214 143 151 151 165 172 179 187 189 189 188 190 193 195 196 197 199 193 198 201 198 208 213 219 220 229 219 224 222 226 214 234 243 269 279 238 230 212 221 213 215
19 44 336 61 174 146 201 291 149 159 158 165 174 180 189 196 199 193 194 200 194 200 200 198 198 200 200 206 199 219 219 224 227 229 230 227 219 218 233 246 253 263 240 230 232 217 218 215 216
30 328 340 335 219 154 206 278 94 169 177 172 182 187 195 199 202 197 199 199 191 199 198 203 202 206 204 205 218 222 230 236 237 236 234 229 227 219 231 238 245 228 227 251 256 221 231 189 193
356 331 325 283 203 179 217 251 148 180 191 187 189 195 198 202 208 197 202 197 195 195 199 206 203 209 201 200 212 229 230 228 236 240 238 240 238 238 227 233 220 222 237 234 250 256 209 225 198
141 275 299 254 256 223 219 260 252 186 198 197 201 206 207 211 203 200 199 194 192 190 197 203 199 206 195 195 199 219 226 218 234 238 245 246 241 244 238 234 228 206 244 254 251 258 244 182 174
211 244 293 292 348 222 174 248 314 191 219 209 200 209 213 208 199 198 193 193 194 192 199 201 203 196 196 195 201 214 195 220 200 220 222 238 248 241 238 241 228 208 239 242 238 239 251 180 199
203 272 252 268 349 6 312 251 31 72 237 213 216 222 215 206 208 198 193 194 193 197 200 199 202 197 198 201 194 190 202 222 210 215 234 224 235 240 231 237 243 219 221 246 245 240 240 189 187
268 257 225 249 241 274 339 314 290 344 315 209 229 228 222 210 211 201 197 196 197 202 200 200 199 198 200 193 199 204 211 221 227 231 230 236 222 229 230 242 246 244 244 239 234 235 241 252 192
22 84 43 130 154 240 58 258 80 0 2 27 4 300 243 218 204 201 198 196 198 196 198 201 198 198 200 197 210 206 221 230 233 233 234 234 230 221 218 233 240 249 242 248 242 234 228 233 233
138 113 76 97 152 235 20 280 94 7 326 323 330 329 285 211 200 200 190 181 191 192 192 191 197 201 198 199 202 215 225 224 231 228 224 246 243 221 222 217 230 238 239 237 238 246 236 244 238
174 215 260 194 175 73 301 245 13 339 340 330 331 342 39 173 171 170 170 180 193 197 201 192 193 202 201 201 205 209 217 228 243 253 251 241 243 240 234 224 225 230 228 235 235 237 241 234 238
174 252 261 296 179 110 166 232 71 346 9 11 22 46 85 110 122 139 159 171 203 216 210 203 196 198 200 200 203 202 199 207 218 230 240 260 261 265 255 235 232 228 227 228 230 236 242 239 237
148 196 52 117 62 218 10 230 206 100 59 60 60 74 79 84 92 98 100 123 174 206 224 227 208 205 213 211 190 186 192 189 216 242 222 246 255 259 254 241 241 237 233 226 226 236 230 239 236
297 130 183 162 179 168 163 277 250 172 102 88 81 81 84 89 93 83 66 61 34 281 275 226 193 194 207 208 184 196 181 213 263 266 266 254 257 258 253 249 240 239 243 233 227 236 233 237 238
155 146 72 101 301 196 166 226 201 167 143 118 102 91 95 92 85 74 57 43 44 52 63 85 117 153 175 197 143 163 187 182 244 267 249 251 254 249 257 254 243 241 237 231 235 241 239 234 241
29 83 291 268 178 11 302 185 344 186 156 140 122 110 98 92 89 82 71 62 68 73 90 86 80 100 101 103 160 157 160 211 256 267 263 240 242 229 255 254 249 239 240 239 230 234 235 233 239